Tracking 19245 objects as of 14-Aug-2018
HD Live streaming from Space Station
objects crossing your sky now

FENGYUN 1C DEB

Track FENGYUN 1C DEB now!
10-day predictions


NORAD ID: 30146
Int'l Code: 1999-025TB
Perigee: 826.0 km
Apogee: 1,094.9 km
Inclination: 98.0 °
Period: 104.1 minutes
Semi major axis: 7331 km
RCS: 0.015 m2 (small)
Launch date: May 10, 1999
Source: People's Republic of China (PRC)
Launch site: Taiyaun Space Center, China (TSC)

Note: This is SATELLITE DEBRIS
aabbcc
Your satellite tracking list
Your tracking list is empty




NASA's NSSDC Master Catalog

Two Line Element Set (TLE):
1 30146U 99025TB  18226.39757625  .00000129  00000-0  13252-3 0  9990
2 30146  98.0369  11.9987 0183385 330.5051  91.3128 13.83000250583957
Source of the keplerian elements: AFSPC